Regional Weather Roundup
Issued by NWS

Home | Current Version | Previous Version | Graphics & Text | Print | Product List | Glossary On
Versions: 1 2 3 4 5 6 7 8 9 10 11 12 13 14 15 16 17 18 19 20 21 22 23 24 25 26 27 28 29 30 31 32 33 34 35 36 37 38 39 40 41 42 43 44 45 46 47 48 49 50
000
ASUS43 KFSD 292102
RWRSD

WEATHER ROUNDUP FOR SOUTH DAKOTA
NATIONAL WEATHER SERVICE SIOUX FALLS SD
400 PM CDT SAT AUG 29 2015

NOTE: "FAIR" INDICATES FEW OR NO CLOUDS BELOW 12,000 FEET WITH NO
SIGNIFICANT WEATHER AND/OR OBSTRUCTIONS TO VISIBILITY.


SDZ001>005-009-010-012>017-292200-
NORTHWEST AND NORTH CENTRAL SOUTH DAKOTA

CITY           SKY/WX    TMP DP  RH WIND       PRES   REMARKS
FAITH            N/A     93  52  24 S13       29.93F
MOBRIDGE       FAIR      90  67  46 S10       29.89F
$$

SDZ012>016-024>037-041>051-057-063-072>074-292200-
SOUTHWEST AND SOUTH CENTRAL SOUTH DAKOTA

CITY           SKY/WX    TMP DP  RH WIND       PRES   REMARKS
RAPID CTY ARPT FAIR      93  49  22 S17       29.97F
PIERRE         FAIR      93  60  33 S13       29.90F
CUSTER         FAIR      85  38  18 VRB7G20   30.17F
ELLSWORTH AFB  FAIR      94  48  20 S15       29.96F
PHILIP         FAIR      94  55  26 SW10      29.93F
PINE RIDGE     FAIR      93  41  16 SW9       30.02F
WINNER         FAIR      91  62  37 S8        29.98F
$$

SDZ004>011-016>023-039-040-292200-
NORTHEAST SOUTH DAKOTA

CITY           SKY/WX    TMP DP  RH WIND       PRES   REMARKS
ABERDEEN       FAIR      84  71  65 S8        29.92F
WATERTOWN      FAIR      79  66  64 S12       29.98F
BROOKINGS      FAIR      75  64  69 S9        30.03S
$$

SDZ017-020-022-023-036>040-048>070-292200-
SOUTHEAST SOUTH DAKOTA

CITY           SKY/WX    TMP DP  RH WIND       PRES   REMARKS
SIOUX FALLS    CLOUDY    74  64  71 S10       30.02F
HURON          FAIR      83  69  62 S13       29.95S
MITCHELL       FAIR      81  69  67 S13       29.98F
YANKTON        FAIR      75  66  73 SE8       30.02F
$$

ABBREVIATIONS USED IN REMARKS
   TC - TEMPERATURE IN CELSIUS
  WCI - WIND CHILL INDEX
   HX - HEAT INDEX
  VSB - VISIBILITY



USA.gov is the U.S. government's official web portal to all federal, state and local government web resources and services.